Weather History for Jefferson City, MO

Change the Weather History Date:

Wednesday, May 8, 2013

  Actual Average Record
Temperature  
Mean Temperature 64 °F -  
Max Temperature 78 °F 75 °F 92 °F (1934)
Min Temperature 50 °F 49 °F 37 °F (1951)
Degree Days  
Heating Degree Days 1    
Growing Degree Days 14 (Base 50)    
Moisture  
Dew Point 53 °F    
Average Humidity 73    
Maximum Humidity 93    
Minimum Humidity 39    
Precipitation  
Precipitation 0.00 in - - ()
Sea Level Pressure  
Sea Level Pressure 29.97 in    
Wind  
Wind Speed 2 mph (SSE)    
Max Wind Speed 15 mph    
Max Gust Speed 23 mph    
Visibility 10 miles    
Events      
Averages and records for this station are not official NWS values.
T = Trace of Precipitation, MM = Missing Value Source: NWS Daily Summary

Daily Weather History Graph

Daily Weather History Graph

Search for Another Location

Airport:

Trip Planner

Search our weather history database for the weather conditions in past years. The results will help you decide how hot, cold, wet, or windy it might be!

Date:

Astronomy

May. 08, 2013 Rise Set
Actual Time 6:03 AM CDT 8:07 PM CDT
Civil Twilight 5:34 AM CDT 8:36 PM CDT
Nautical Twilight 4:58 AM CDT 9:12 PM CDT
Astronomical Twilight 4:19 AM CDT 9:51 PM CDT
Moon 5:10 AM CDT (5/8) 7:06 PM CDT (5/8)
Length of Visible Light 15h 02m
Length of Day
14h 04m
Waning Crescent, 2% of the Moon is Illuminated
May 8
Waning Crescent
May 9
New
May 17
First Quarter
May 24
Full
May 31
Last Quarter

Hourly Weather History & Observations

Time (CDT) Temp. Dew Point Humidity Pressure Visibility Wind Dir Wind Speed Gust Speed Precip Events Conditions
12:53 AM 55.9 °F 51.1 °F 84% 29.97 in 10.0 mi Calm Calm - N/A   Clear
1:53 AM 54.0 °F 50.0 °F 86% 29.97 in 10.0 mi Calm Calm - N/A   Clear
2:53 AM 53.1 °F 50.0 °F 89% 29.96 in 10.0 mi Calm Calm - N/A   Clear
3:53 AM 52.0 °F 48.9 °F 89% 29.96 in 10.0 mi Calm Calm - N/A   Clear
4:53 AM 51.1 °F 48.9 °F 92% 29.97 in 10.0 mi Calm Calm - N/A   Clear
5:53 AM 50.0 °F 48.0 °F 93% 29.98 in 9.0 mi Calm Calm - N/A   Clear
6:53 AM 51.1 °F 48.0 °F 89% 30.00 in 9.0 mi Calm Calm - N/A   Clear
7:53 AM 55.9 °F 52.0 °F 87% 30.01 in 10.0 mi Calm Calm - N/A   Mostly Cloudy
8:53 AM 61.0 °F 54.0 °F 78% 30.01 in 10.0 mi ESE 3.5 mph - N/A   Clear
9:53 AM 68.0 °F 55.9 °F 65% 30.00 in 10.0 mi ESE 5.8 mph - N/A   Clear
10:53 AM 75.0 °F 54.0 °F 48% 30.00 in 10.0 mi SSW 4.6 mph - N/A   Clear
11:53 AM 78.1 °F 52.0 °F 40% 30.00 in 10.0 mi WSW 11.5 mph - N/A   Mostly Cloudy
12:53 PM 77.0 °F 50.0 °F 39% 29.98 in 10.0 mi SSW 8.1 mph - N/A   Mostly Cloudy
1:53 PM 73.0 °F 52.0 °F 48% 29.99 in 10.0 mi West 15.0 mph 23.0 mph N/A   Overcast
2:53 PM 69.1 °F 54.0 °F 58% 30.00 in 10.0 mi SW 5.8 mph - 0.00 in   Overcast
3:53 PM 68.0 °F 55.0 °F 63% 29.98 in 10.0 mi Calm Calm - 0.00 in   Overcast
4:53 PM 68.0 °F 57.9 °F 70% 29.97 in 10.0 mi Calm Calm - N/A   Overcast
5:53 PM 70.0 °F 55.9 °F 61% 29.96 in 10.0 mi ESE 3.5 mph - N/A   Mostly Cloudy
6:53 PM 69.1 °F 55.9 °F 63% 29.95 in 10.0 mi ESE 5.8 mph - N/A   Partly Cloudy
7:53 PM 66.0 °F 57.0 °F 73% 29.94 in 10.0 mi ESE 6.9 mph - N/A   Clear
8:53 PM 63.0 °F 57.0 °F 81% 29.94 in 10.0 mi ESE 4.6 mph - N/A   Partly Cloudy
9:53 PM 61.0 °F 57.0 °F 87% 29.93 in 10.0 mi ESE 6.9 mph - N/A   Mostly Cloudy
10:53 PM 62.1 °F 57.9 °F 86% 29.93 in 10.0 mi SE 4.6 mph - N/A   Overcast
11:53 PM 61.0 °F 57.9 °F 90% 29.93 in 10.0 mi SE 4.6 mph - N/A   Overcast